Regional Weather Roundup
Issued by NWS

Home | Current Version | Previous Version | Text Only | Print | Product List | Glossary Off
Versions: 1 2 3 4 5 6 7 8 9 10 11 12 13 14 15 16 17 18 19 20 21 22 23 24 25 26 27 28 29 30 31 32 33 34 35 36 37 38 39 40 41 42 43 44 45 46 47 48 49 50

000
ASUS43 KDTX 241101
RWRMI
MICHIGAN HOURLY REGIONAL WEATHER ROUNDUP
NATIONAL WEATHER SERVICE DETROIT/PONTIAC MI
700 AM EDT TUE APR 24 2018

NOTE: "FAIR" INDICATES FEW OR NO CLOUDS BELOW 12,000 FEET WITH NO
SIGNIFICANT WEATHER AND/OR OBSTRUCTION TO VISIBILITY.

MIZ047>049-052>055-059>063-066>070-074>076-081>083-241200-
SOUTHEAST LOWER MICHIGAN

CITY           SKY/WX    TMP DP  RH WIND       PRES   REMARKS
ADRIAN         CLOUDY    52  46  80 E13       30.10S
ALMA           CLOUDY    51  48  89 CALM      30.11S
ANN ARBOR      CLOUDY    52  49  89 E6        30.12R
BAD AXE        CLOUDY    54  43  66 CALM      30.14S
CARO           CLOUDY    51  45  81 CALM      30.13S
DETROIT CITY   CLOUDY    53  44  71 E6        30.14R
DETROIT        LGT RAIN  53  47  79 S10       30.14R
FLINT          CLOUDY    52  47  83 E5        30.13R
GROSSE ILE     DRIZZLE   51  46  82 CALM      30.13R
HILLSDALE      CLOUDY    52  45  76 E3        30.07S
HOWELL         CLOUDY    53  48  84 SE9       30.12S

CITY           SKY/WX    TMP DP  RH WIND       PRES   REMARKS
JACKSON        CLOUDY    54  46  74 NE8       30.10R
LAMBERTVILLE   CLOUDY    53  46  78 E7G17     30.11R
LANSING        CLOUDY    53  49  86 E7        30.11S
LAPEER         DRIZZLE   51  47  88 CALM      30.14S
MASON          CLOUDY    53  45  72 CALM      30.11S
MONROE         CLOUDY    51  47  86 SE6       30.12R
PONTIAC        CLOUDY    54  47  77 S5        30.12R
PORT HOPE        N/A     49  46  90 SE5       30.12R
PORT HURON     RAIN      50  45  81 CALM      30.16R
TRI CITIES     CLOUDY    50  45  83 SE3       30.12S
MIDLAND        CLOUDY    46  41  85 CALM      30.11S
TROY           CLOUDY    57  43  59 CALM      30.15S
SAGINAW HB     CLOUDY    52  45  76 SE3       30.12S
$$
MIZ043>046-050>051-056>058-064>065-071>073-077>080-241200-
SOUTHWEST LOWER MICHIGAN

CITY           SKY/WX    TMP DP  RH WIND       PRES   REMARKS
BATTLE CREEK   CLOUDY    53  46  77 E7        30.09R
BENTON HARBOR  CLOUDY    52  47  83 E3        30.06S
BIG RAPIDS     MOCLDY    46  38  73 CALM      30.10R
COLDWATER      CLOUDY    52  49  92 E5        30.08R
HOLLAND        CLOUDY    53  47  79 E6        30.08S
GRAND RAPIDS   CLOUDY    52  48  86 E5        30.09S
IONIA          CLOUDY    52  46  80 E5        30.09S
KALAMAZOO      CLOUDY    54  46  74 CALM      30.08F
LUDINGTON      CLOUDY    44  39  83 CALM      30.08S
MARSHALL       CLOUDY    50  50  99 CALM      30.08F
MOUNT PLEASANT FAIR      49  45  84 CALM      30.11R
MUSKEGON       CLOUDY    54  46  74 SE6       30.09R
SOUTH HAVEN    CLOUDY    53  47  81 CALM      30.07S
$$
MIZ016>042-241200-
NORTHERN LOWER MICHIGAN

CITY           SKY/WX    TMP DP  RH WIND       PRES   REMARKS
ALPENA         FAIR      35  30  82 CALM      30.12S
BEAVER ISLAND  FAIR      32  29  91 CALM      30.10R
CADILLAC       FAIR      43  34  70 CALM      30.10R
CHARLEVOIX     FAIR      38  30  72 E3        30.12S
FRANKFORT      FAIR      40  35  81 CALM      30.09S
GAYLORD        FAIR      37  31  78 CALM      30.10S
HARBOR SPRINGS FAIR      38  29  72 NE5       30.09S WCI  34
HOUGHTON LAKE  FAIR      41  36  82 NE3       30.11R
MANISTEE       FAIR      42  34  73 E3        30.09R
OSCODA         CLOUDY    41  31  68 CALM      30.13R
PELLSTON       FAIR      32  27  81 CALM      30.10S
ROGERS CITY    FAIR      34  29  83 CALM      30.12S
TRAVERSE CITY  MOCLDY    39  33  79 CALM      30.09S
$$
MIZ007>008-015-241200-
EASTERN UPPER MICHIGAN

CITY           SKY/WX    TMP DP  RH WIND       PRES   REMARKS
KINROSS        FAIR      33  23  66 N7        30.12R WCI  27
MACKINAC ISLAN FAIR      35  30  80 CALM      30.10R
NEWBERRY       FAIR      34  26  72 CALM      30.10S
S. S. MARIE    FAIR      38  25  59 E3        30.11S
MUNISING         N/A     33  27  78 S9        30.09R WCI  25
$$
MIZ004>006-011>014-085-241200-
CENTRAL UPPER MICHIGAN

CITY           SKY/WX    TMP DP  RH WIND       PRES   REMARKS
MANISTIQUE     FAIR      30  28  94 NW3       30.09S
ESCANABA       FAIR      28  25  88 NW3       30.10S
MENOMINEE      FAIR      29  27  92 CALM      30.11R
SAWYER-GWINN   CLEAR     37  25  60 N5        30.10R WCI  34
$$
MIZ001>003-009>011-084-241200-
WESTERN UPPER MICHIGAN

CITY           SKY/WX    TMP DP  RH WIND       PRES   REMARKS
IRON MOUNTAIN  FAIR      30  25  81 NW5       30.08S WCI  25
HOUGHTON       FAIR      43  29  57 N17       30.11R
COPPER HARBOR    N/A     39  31  72 N7        30.13R WCI  34
IRONWOOD       FAIR      30  27  88 CALM      30.14R
$$

ABBREVIATIONS USED IN REMARKS
   TC - TEMPERATURE IN CELSIUS
  WCI - WIND CHILL INDEX
   HX - HEAT INDEX
  VSB - VISIBILITY




USA.gov is the U.S. government's official web portal to all federal, state and local government web resources and services.